Regional Weather Roundup
Issued by NWS

Home | Current Version | Previous Version | Text Only | Print | Product List | Glossary Off
Versions: 1 2 3 4 5 6 7 8 9 10 11 12 13 14 15 16 17 18 19 20 21 22 23 24 25 26 27 28 29 30 31 32 33 34 35 36 37 38 39 40 41 42 43 44 45 46 47 48 49 50

000
ASUS45 KBOI 201610
RWRID
WEATHER ROUNDUP FOR IDAHO
NATIONAL WEATHER SERVICE BOISE ID
900 AM MST SAT DEC 20 2014

NOTE: "FAIR" INDICATES FEW OR NO CLOUDS BELOW 12000 FEET
WITH NO SIGNIFICANT WEATHER AND/OR OBSTRUCTIONS TO VISIBILITY

IDZ012-014-201700-
SOUTHWEST IDAHO


CITY           SKY/WX    TMP DP  RH WIND       PRES   REMARKS
BOISE          LGT RAIN  40  37  89 SE9       30.01F WCI  34
CALDWELL       CLOUDY    39  34  81 E7        30.02S WCI  34
MOUNTAIN HOME  LGT RAIN  37  35  93 E14       30.02F WCI  28
$$

IDZ016-017-201700-
SOUTHCENTRAL IDAHO


CITY           SKY/WX    TMP DP  RH WIND       PRES   REMARKS
BURLEY         CLOUDY    38  31  76 SW12      30.04R WCI  30
JEROME         LGT RAIN  36  31  82 S6        30.06R WCI  31
TWIN FALLS     LGT RAIN  38  32  79 S10       30.05R WCI  31
$$

IDZ019>023-201700-
SOUTHEAST IDAHO


CITY           SKY/WX    TMP DP  RH WIND       PRES   REMARKS
IDAHO FALLS    LGT SNOW  35  32  88 SW8       30.05S FOG     WCI  29
POCATELLO      CLOUDY    37  33  85 S5        30.05F WCI  33
REXBURG        CLOUDY    33  32  96 SW10      30.04S WCI  25
$$

IDZ006-010-011-018-031-032-201700-
CENTRAL IDAHO MOUNTAINS


CITY           SKY/WX    TMP DP  RH WIND       PRES   REMARKS
MCCALL         LGT SNOW  32  31  96 SE9       29.91F FOG     WCI  24
HAILEY         LGT SNOW  28  27  93 NW5       30.05R VSB 1   WCI  23
STANLEY          N/A     22  18  85 CALM      29.97S
SALMON         CLOUDY    27  25  93 CALM      30.00S VSB 1/4
CHALLIS        CLOUDY    25  23  92 CALM      29.98S
$$

IDZ002-004-006-007-026-201700-
NORTHERN IDAHO


CITY           SKY/WX    TMP DP  RH WIND       PRES   REMARKS
LEWISTON       CLOUDY    38  36  92 SE8       29.89F WCI  32
LOWELL           N/A     36  35  96 VRB3      29.97F
COEUR D`ALENE  CLOUDY    34  30  86 NE6       29.86F WCI  29
MULLAN PASS    SNOW      26  24  92 VRB5      29.81F VSB 1/2 WCI  20
$$



USA.gov is the U.S. government's official web portal to all federal, state and local government web resources and services.